GW1392 Weather Reports


Display with metric or nautical units.
time (UTC)temp
F
wind
direction
speed
MPH
gust
MPH
rain 1hr
in
rain 24hr
in
rain mn
in
humidity
%
barometer
mb
20260506013055 52 198 8.0 11.0 0.00 0.00 0.00 85 1007.9
20260506011558 54 167 7.0 13.0 0.00 0.00 0.00 83 1007.8
20260506010059 55 203 6.0 11.0 0.00 0.00 0.00 82 1007.6
20260506004625 54 172 9.0 12.0 0.00 0.00 0.00 83 1007.3
20260506003056 54 197 10.0 16.0 0.00 0.00 0.00 84 1007.0
20260506001555 55 191 13.0 19.0 0.00 0.00 0.00 81 1006.3
20260506000052 60 143 3.0 7.0 0.00 0.00 0.00 75 1006.1
20260505234611 61 165 5.0 10.0 0.00 0.00 0.00 74 1006.5
20260505233046 59 160 3.0 11.0 0.00 0.00 0.00 78 1006.4
20260505231542 55 160 9.0 18.0 0.00 0.00 0.00 83 1005.9
20260505230045 54 152 6.0 18.0 0.00 0.00 0.00 84 1004.7
20260505224541 54 181 9.0 17.0 0.00 0.00 0.00 83 1004.5
20260505223054 54 199 9.0 21.0 0.00 0.00 0.00 83 1004.2
20260505221553 54 200 17.0 23.0 0.00 0.00 0.00 83 1003.9
20260505220038 55 192 11.0 22.0 0.00 0.00 0.00 82 1004.1
20260505214542 55 196 17.0 25.0 0.00 0.00 0.00 82 1003.9
20260505213037 55 184 18.0 26.0 0.00 0.00 0.00 82 1003.9
20260505211536 55 192 18.0 27.0 0.00 0.00 0.00 82 1003.8
20260505210036 54 192 16.0 22.0 0.00 0.00 0.00 85 1003.8
20260505204535 54 201 14.0 20.0 0.00 0.00 0.00 85 1003.9
20260505203036 54 188 14.0 22.0 0.00 0.00 0.00 85 1003.8
20260505201532 54 172 13.0 19.0 0.00 0.00 0.00 85 1004.1
20260505200034 55 191 16.0 23.0 0.00 0.00 0.00 84 1004.1
20260505194527 53 201 12.0 17.0 0.00 0.00 0.00 86 1004.4
20260505193026 53 204 11.0 17.0 0.00 0.00 0.00 86 1004.7
20260505191523 54 205 12.0 25.0 0.00 0.00 0.00 86 1005.2
20260505190022 53 172 13.0 18.0 0.00 0.00 0.00 87 1005.2
20260505184526 53 194 8.0 13.0 0.00 0.00 0.00 87 1005.3
20260505183037 53 184 8.0 17.0 0.00 0.00 0.00 87 1005.5
20260505181517 53 181 13.0 19.0 0.00 0.00 0.00 86 1005.6
20260505180016 53 212 14.0 19.0 0.00 0.00 0.00 87 1005.7
20260505174512 53 190 11.0 18.0 0.00 0.00 0.00 87 1005.9
20260505173019 53 191 12.0 16.0 0.00 0.00 0.00 87 1006.3
20260505171509 52 178 12.0 15.0 0.00 0.00 0.00 88 1006.4
20260505170010 53 200 12.0 21.0 0.00 0.00 0.00 85 1006.4
20260505164505 52 197 16.0 25.0 0.00 0.00 0.00 88 1006.8
20260505163004 51 189 13.0 18.0 0.00 0.00 0.00 89 1006.9
20260505161502 51 186 13.0 18.0 0.00 0.00 0.00 89 1007.2
20260505153100 50 179 9.0 13.0 0.00 0.00 0.00 91 1007.8
20260505151608 50 194 9.0 17.0 0.00 0.00 0.00 91 1008.4
20260505140109 50 189 13.0 17.0 0.00 0.00 0.00 90 1007.9
20260505124557 51 199 12.0 15.0 0.00 0.00 0.00 88 1007.9
20260505123047 50 186 9.0 13.0 0.00 0.00 0.00 89 1007.7
20260505121547 50 205 11.0 15.0 0.00 0.00 0.00 89 1007.9
20260505120051 50 186 10.0 13.0 0.00 0.00 0.00 88 1008.0
20260505114547 50 191 11.0 15.0 0.00 0.00 0.00 87 1008.2
20260505113043 50 186 8.0 11.0 0.00 0.00 0.00 89 1008.1
20260505111543 49 179 9.0 12.0 0.00 0.00 0.00 89 1008.2
20260505101542 48 195 5.0 7.0 0.00 0.00 0.00 91 1008.0
20260505100039 48 203 4.0 8.0 0.00 0.00 0.00 91 1007.8
20260505094535 47 204 4.0 8.0 0.00 0.00 0.00 91 1007.9
20260505093035 47 188 6.0 9.0 0.00 0.00 0.00 91 1007.9
20260505091531 47 199 5.0 7.0 0.00 0.00 0.00 91 1007.9
20260505090031 47 184 6.0 8.0 0.00 0.00 0.00 91 1008.1
20260505084540 48 199 4.0 8.0 0.00 0.00 0.00 89 1008.1
20260505083028 48 173 3.0 5.0 0.00 0.00 0.00 88 1008.1
20260505081525 48 182 0.0 7.0 0.00 0.00 0.00 87 1008.2
20260505080024 49 206 1.0 5.0 0.00 0.00 0.00 86 1008.2
20260505074522 49 175 2.0 7.0 0.00 0.00 0.00 86 1008.2
20260505073032 49 206 6.0 8.0 0.00 0.00 0.00 86 1008.1
20260505071520 49 220 3.0 8.0 0.00 0.00 0.00 86 1008.0
20260505070029 49 190 7.0 10.0 0.00 0.00 0.00 87 1007.8
20260505064514 49 203 4.0 9.0 0.00 0.00 0.00 86 1007.9
20260505063014 49 200 3.0 6.0 0.00 0.00 0.00 86 1007.9
20260505061507 50 178 3.0 6.0 0.00 0.00 0.00 86 1008.0
20260505060004 51 180 2.0 6.0 0.00 0.00 0.00 82 1007.9
20260505054504 51 219 2.0 5.0 0.00 0.00 0.00 82 1008.0
20260505053002 51 220 0.0 6.0 0.00 0.00 0.00 82 1007.9
20260505051502 52 198 4.0 9.0 0.00 0.00 0.00 79 1007.7
20260505041557 53 186 0.0 5.0 0.00 0.00 0.00 78 1007.2
20260505040054 53 178 6.0 10.0 0.00 0.00 0.00 78 1007.1
20260505034549 57 177 4.0 10.0 0.00 0.00 0.00 68 1007.0
20260505033049 57 205 3.0 11.0 0.00 0.00 0.00 68 1006.9
20260505031555 56 196 3.0 11.0 0.00 0.00 0.00 70 1006.9
20260505030047 56 162 6.0 16.0 0.00 0.00 0.00 70 1006.9
20260505024556 55 196 7.0 18.0 0.00 0.00 0.00 72 1006.9
20260505023046 54 215 4.0 13.0 0.00 0.00 0.00 75 1006.8
20260505021548 51 219 0.0 2.0 0.00 0.00 0.00 83 1006.8
20260505020045 50 205 0.0 5.0 0.00 0.00 0.00 84 1006.9
20260505014602 50 188 4.0 7.0 0.00 0.00 0.00 85 1006.7